Regional Weather Roundup
Issued by NWS

Home | Current Version | Previous Version | Graphics & Text | Print | Product List | Glossary On
Versions: 1 2 3 4 5 6 7 8 9 10 11 12 13 14 15 16 17 18 19 20 21 22 23 24 25 26 27 28 29 30 31 32 33 34 35 36 37 38 39 40 41 42 43 44 45 46 47 48 49 50
000
ASUS43 KLMK 292310
RWRKY
KENTUCKY REGIONAL WEATHER ROUNDUP
NATIONAL WEATHER SERVICE LOUISVILLE KY
700 PM EDT FRI APR 29 2016

NOTE "FAIR" INDICATES FEW OR NO CLOUDS BELOW 12,000 FEET
WITH NO SIGNIFICANT WEATHER AND/OR OBSTRUCTIONS TO VISIBILITY.

KYZ001>023-026-027-061>063-070>075-300000-
WESTERN AND SOUTH CENTRAL KENTUCKY

CITY           SKY/WX    TMP DP  RH WIND       PRES   REMARKS
PADUCAH        CLOUDY    62  58  86 E6        29.94S
HENDERSON      CLOUDY    66  54  63 CALM      29.97F
OWENSBORO      CLOUDY    68  56  65 VRB3      29.99F
HOPKINSVILLE   CLOUDY    64  61  91 E7        29.96S
BOWLING GREEN  CLOUDY    70  58  65 CALM      30.00S
GLASGOW        CLOUDY    69  58  68 CALM      29.99F
$$

KYZ024-025-028>034-038-045-046-053-300000-
NORTH CENTRAL KENTUCKY

CITY           SKY/WX    TMP DP  RH WIND       PRES   REMARKS
LOUISVILLE/SDF CLOUDY    70  49  47 W5        30.00F
LOUISVILLE/LOU CLOUDY    69  48  47 NE3       30.01F
FORT KNOX      CLOUDY    67  51  57 NW2       30.00S
$$

KYZ035>037-039>044-047>052-055>060-089>105-300000-
NORTHEAST KENTUCKY

CITY           SKY/WX    TMP DP  RH WIND       PRES   REMARKS
LEXINGTON      CLOUDY    67  49  52 NW7       30.03S
COVINGTON      CLOUDY    64  48  56 W8        30.03R
FRANKFORT      CLOUDY    68  49  50 W3        30.02S
$$

KYZ054-064>069-076>088-106>120-300000-
SOUTHEAST KENTUCKY

CITY           SKY/WX    TMP DP  RH WIND       PRES   REMARKS
JACKSON        MOSUNNY   72  51  47 VRB3      30.02R
LONDON         CLOUDY    74  50  42 W8        30.02R
SOMERSET       CLOUDY    72  48  43 NW3       30.02F
MIDDLESBORO    CLOUDY    76  51  42 NW3       30.02R
MONTICELLO     NOT AVBL
$$





USA.gov is the U.S. government's official web portal to all federal, state and local government web resources and services.